Location: Zagreb
(45.8000°N, 16.0000°E)
Time: 12:12:06
(UTC+01:00)

Vanguard 1 Rocket - Pass Details

Date: 09 October 2020
Orbit: 656 x 4221 km, 34.3° (Epoch: 28 October)

Event Time Altitude Azimuth Distance (km) Brightness Sun altitude
Rises 22:06:07 0° 274° (W) 5,844 12.2 -38.3°
Reaches altitude 10° 22:10:03 10° 264° (W) 5,293 11.7 -38.8°
Maximum altitude 22:23:45 31° 211° (SSW) 5,017 10.9 -40.7°
Enters shadow 22:29:37 27° 189° (S) 5,562 11.0 -41.4°
Drops below altitude 10° 22:43:08 10° 161° (SSE) 7,393 - -43.1°
Sets 22:50:20 0° 152° (SSE) 8,436 - -43.9°
